User: anonymous   Login
Location: Crayja
(6.2254°N, 10.6273°W)
Time: 16:29:48
(UTC+00:00)
Language:

STARLINK-69 - Orbit

View from above orbital plane
View from above orbital plane
View from above satellite
View from above satellite

Ground track
Ground track

The orbit data is extracted from the following two-line orbital elements,

1 44267C 19029AJ  20152.42977340  .00888592  00000-0  34938-1 0  1529
2 44267  52.9966 286.6345 0001847 133.5159 338.0809 15.24244626    11
Epoch (UTC): 31 May 2020 10:18:52
Eccentricity: 0.0001847
inclination: 52.9966°
perigee height: 492 km
apogee height: 494 km
right ascension of ascending node: 286.6345°
argument of perigee: 133.5159°
revolutions per day: 15.24244626
mean anomaly at epoch: 338.0809°
orbit number at epoch: 1

The dashed part of the orbit path shows where the satellite is in the earth's shadow,  

DLR